Weather History for Pelotas, Brazil

Change the Weather History Date:

Friday, June 28, 2013

  Actual Average Record
Temperature  
Mean Temperature 50 °F -  
Max Temperature 60 °F 62 °F 86 °F (2012)
Min Temperature 41 °F 47 °F 37 °F (1997)
Degree Days  
Heating Degree Days 14    
Moisture  
Dew Point 55 °F    
Average Humidity 100    
Maximum Humidity 100    
Minimum Humidity 100    
Precipitation  
Precipitation 0.00 in - - ()
Sea Level Pressure  
Sea Level Pressure 29.90 in    
Wind  
Wind Speed 5 mph ()    
Max Wind Speed 13 mph    
Max Gust Speed -    
Visibility 3.8 miles    
Events Rain , Thunderstorm    
Averages and records for this station are not official NWS values.
T = Trace of Precipitation, MM = Missing Value Source: Averaged Metar Reports

Daily Weather History Graph

Daily Weather History Graph

Search for Another Location

Airport:

Trip Planner

Search our weather history database for the weather conditions in past years. The results will help you decide how hot, cold, wet, or windy it might be!

Date:

Astronomy

Jun. 28, 2013 Rise Set
Actual Time 7:29 AM BRT 5:35 PM BRT
Civil Twilight 7:02 AM BRT 6:02 PM BRT
Nautical Twilight 6:32 AM BRT 6:32 PM BRT
Astronomical Twilight 6:02 AM BRT 7:02 PM BRT
Moon 11:36 PM BRT (6/28) 11:09 AM BRT (6/28)
Length of Visible Light 10h 59m
Length of Day
10h 05m
Waning Gibbous, 67% of the Moon is Illuminated
Jun 28
Waning Gibbous
Jun 30
Last Quarter
Jul 8
New
Jul 16
First Quarter
Jul 22
Full

Hourly Weather History & Observations

Time (BRT) Temp. Dew Point Humidity Pressure Visibility Wind Dir Wind Speed Gust Speed Precip Events Conditions
6:15 AM 41.0 °F 41.0 °F 100% 29.98 in 3.1 mi NE 2.3 mph - N/A   Mist
7:00 AM 44.6 °F 44.6 °F 100% 30.01 in 2.5 mi ENE 2.3 mph - N/A   Scattered Clouds
8:00 AM 44.6 °F 44.6 °F 100% 30.01 in 1.9 mi NE 2.3 mph - N/A   Mostly Cloudy
9:00 AM 50.0 °F 50.0 °F 100% 30.01 in 2.5 mi NNE 2.3 mph - N/A   Overcast
10:00 AM 53.6 °F 53.6 °F 100% 30.04 in 3.1 mi ENE 3.5 mph - N/A   Mist
11:00 AM 55.4 °F 55.4 °F 100% 30.04 in 3.1 mi ENE 8.1 mph - N/A   Overcast
12:00 PM 57.2 °F 57.2 °F 100% 30.01 in 6.2 mi ENE 10.4 mph - N/A   Overcast
1:00 PM 60.8 °F 60.8 °F 100% 29.95 in 6.2 mi NE 11.5 mph - N/A   Scattered Clouds
2:00 PM 60.8 °F 60.8 °F 100% 29.89 in 6.2 mi East 12.7 mph - N/A   Mostly Cloudy
3:00 PM 60.8 °F 60.8 °F 100% 29.89 in - ENE 9.2 mph - N/A   Clear
4:00 PM 59.0 °F 59.0 °F 100% 29.86 in - East 9.2 mph - N/A   Clear
5:00 PM 59.0 °F 59.0 °F 100% 29.86 in - East 8.1 mph - N/A   Clear
6:00 PM 55.4 °F 55.4 °F 100% 29.86 in - ENE 4.6 mph - N/A   Clear
7:00 PM 57.2 °F 57.2 °F 100% 29.80 in - East 11.5 mph - N/A   Clear
8:00 PM 57.2 °F 57.2 °F 100% 29.83 in - East 5.8 mph - N/A   Clear
9:00 PM 57.2 °F 57.2 °F 100% 29.80 in 5.0 mi ENE 9.2 mph - N/A   Mostly Cloudy
9:10 PM 57.2 °F 57.2 °F 100% 29.80 in 3.1 mi ENE 8.1 mph - N/A Rain , Thunderstorm Light Thunderstorms and Rain
10:00 PM 57.2 °F 57.2 °F 100% 29.77 in 3.1 mi East 9.2 mph - N/A Rain , Thunderstorm Light Thunderstorms and Rain
10:30 PM 57.2 °F 57.2 °F 100% 29.77 in 3.1 mi East 6.9 mph - N/A Rain , Thunderstorm Light Thunderstorms and Rain